Tracking 19817 objects as of 17-Aug-2019
HD Live streaming from Space Station
objects crossing your sky now

COSMOS 734

Track COSMOS 734 now!
10-day predictions
COSMOS 734 is classified as:


NORAD ID: 7823
Int'l Code: 1975-045C
Perigee: 1,449.8 km
Apogee: 1,478.8 km
Inclination: 74.0 °
Period: 115.0 minutes
Semi major axis: 7835 km
RCS: 0.7092 m2 (medium)
Launch date: May 28, 1975
Source: Commonwealth of Independent States (former USSR) (CIS)
Launch site: PLESETSK MISSILE AND SPACE COMPLEX (PKMTR)
aabbcc
Your satellite tracking list
Your tracking list is empty




NASA's NSSDC Master Catalog

Two Line Element Set (TLE):
1  7823U 75045C   19228.73844284  .00000009  00000-0  15852-3 0  9996
2  7823  74.0197 314.2296 0018548 264.3304 265.5970 12.51755614 20929
Source of the keplerian elements: AFSPC